Weather Roundup
Issued by NWS Springfield, MO

Home | Current Version | Previous Version | Text Only | Print | Product List | Glossary On
Versions: 1 2 3 4 5 6 7 8 9 10 11 12 13 14 15 16 17 18 19 20 21 22 23 24 25 26 27 28 29 30 31 32 33 34 35 36 37 38 39 40 41 42 43 44 45 46 47 48 49 50
605
NZUS99 KSGF 230157
HRRSGF

HOURLY WEATHER
NATIONAL WEATHER SERVICE SPRINGFIELD MO
800 PM CST WED FEB 22 2017

......SGF CWA......

CITY           SKY/WX    TMP DP  RH WIND       PRES   REMARKS
SPRINGFIELD    CLEAR     60  53  77 SE9       29.73R
JOPLIN         PTCLDY    65  43  44 S5        29.72S
ROLLA          CLEAR     61  53  75 S14       29.71S
BRANSON        PTCLDY    59  55  88 SE7       29.76R

......SURROUNDING SGF CWA......

CITY           SKY/WX    TMP DP  RH WIND       PRES   REMARKS
CHANUTE        CLEAR     60  41  49 S7        29.69R
PARSONS        PTCLDY    66  43  43 S7        29.69F
COFFEYVILLE    CLEAR     63  44  50 S7        29.69S
EMPORIA        PTCLDY    64  37  36 W5        29.69R
HARRISON AR    CLEAR     63  54  72 S7        29.76R

......KANSAS AND MISSOURI......

CITY           SKY/WX    TMP DP  RH WIND       PRES   REMARKS
KANSAS CTY INT MOCLDY    64  35  34 NW8       29.66S
SEDALIA        PTCLDY    60  47  61 S10       29.68F
ST JOSEPH      CLEAR     50  36  58 N9        29.68R
ST LOUIS       PTCLDY    69  53  56 S14       29.70R
WICHITA        PTCLDY    58  47  66 S3        29.69S
TOPEKA         PTCLDY    56  41  57 CALM      29.67R
OLATHE         MOCLDY    61  36  39 CALM      29.67R

......TENNESSEE......

CITY           SKY/WX    TMP DP  RH WIND       PRES   REMARKS
MEMPHIS        NOT AVBL
NASHVILLE      MOCLDY    62  56  80 S3        29.86R

......ARKANSAS.......

CITY           SKY/WX    TMP DP  RH WIND       PRES   REMARKS
FAYETTEVILLE   CLOUDY    56  51  84 CALM      29.77R
FT SMITH       PTCLDY    68  55  63 CALM      29.74R
LITTLE ROCK    PTCLDY    56  55  97 S5        29.83R

......OKLAHOMA.......

CITY           SKY/WX    TMP DP  RH WIND       PRES   REMARKS
TULSA          CLOUDY    67  46  47 SE8       29.67F
MCALESTER      PTCLDY    70  45  40 SE5       29.73S
OKLAHOMA CITY  MOCLDY    63  40  42 SW5       29.72R

......IOWA............

CITY           SKY/WX    TMP DP  RH WIND       PRES   REMARKS
DES MOINES     NOT AVBL
QUAD CITIES    CLEAR    N/A N/A N/A SW9       29.63R

......ILLINOIS........

CITY           SKY/WX    TMP DP  RH WIND       PRES   REMARKS
QUINCY         NOT AVBL
CHICAGO        CLEAR     63  54  72 S14G25    29.61R




USA.gov is the U.S. government's official web portal to all federal, state and local government web resources and services.